Regional Weather Roundup
Issued by NWS

Home | Current Version | Previous Version | Text Only | Print | Product List | Glossary On
Versions: 1 2 3 4 5 6 7 8 9 10 11 12 13 14 15 16 17 18 19 20 21 22 23 24 25 26 27 28 29 30 31 32 33 34 35 36 37 38 39 40 41 42 43 44 45 46 47 48 49 50
000
ASUS43 KBIS 060710
RWRND

NORTH DAKOTA REGIONAL WEATHER ROUNDUP
NATIONAL WEATHER SERVICE BISMARCK ND
200 AM CDT FRI MAY 06 2016

NOTE: "FAIR" INDICATES FEW OR NO CLOUDS BELOW 12,000 FEET WITH NO
SIGNIFICANT WEATHER AND/OR OBSTRUCTIONS TO VISIBILITY.


NDZ001>003-009>011-017-060800-
NORTHWEST NORTH DAKOTA

CITY           SKY/WX    TMP DP  RH WIND       PRES   REMARKS
WILLISTON      CLOUDY    63  42  46 CALM      29.81R
MINOT          PTCLDY    73  37  27 SW12      29.74R
MINOT AFB      CLEAR     62  41  45 SW8       29.72R
$$

NDZ018>021-031>035-040>046-060800-
SOUTHWEST NORTH DAKOTA

CITY           SKY/WX    TMP DP  RH WIND       PRES   REMARKS
BISMARCK       CLEAR     58  47  66 E3        29.78S
DICKINSON      CLEAR     58  43  57 S10       29.79F
GARRISON         N/A     60  40  47 S3        29.76R
HETTINGER ARPT CLOUDY    54  46  74 CALM      29.85S
$$

NDZ004>008-012>016-024-026-027-054-060800-
NORTHEAST NORTH DAKOTA

CITY           SKY/WX    TMP DP  RH WIND       PRES   REMARKS
GRAND FORKS    CLEAR     62  44  51 SW10      29.70S
GRND FRKS AFB  CLEAR     61  45  55 SW7       29.71R
DEVILS LAKE    PTCLDY    64  45  49 SW9       29.73S
$$

NDZ022-023-025-028>030-036>039-047>053-060800-
SOUTHEAST NORTH DAKOTA

CITY           SKY/WX    TMP DP  RH WIND       PRES   REMARKS
FARGO          CLEAR     69  41  36 SW13      29.76S
JAMESTOWN      CLOUDY    57  48  72 S7        29.77S
$$





USA.gov is the U.S. government's official web portal to all federal, state and local government web resources and services.